Tracking 25954 objects as of 14-Aug-2022
HD Live streaming from Space Station
objects crossing your sky now

SL-14 DEB

Track SL-14 DEB now!
10-day predictions


NORAD ID: 45331
Int'l Code: 1991-056BV
Perigee: 1,152.5 km
Apogee: 1,528.4 km
Inclination: 82.7 °
Period: 112.3 minutes
Semi major axis: 7711 km
RCS: Unknown
Launch date: August 15, 1991
Source: Commonwealth of Independent States (former USSR) (CIS)
Launch site: PLESETSK MISSILE AND SPACE COMPLEX (PKMTR)

Note: This is SATELLITE DEBRIS
aabbcc
Your satellite tracking list
Your tracking list is empty




NASA's NSSDC Master Catalog

Two Line Element Set (TLE):
1 45331U 91056BV  22226.06568227 -.00001910  00000-0 -72383-2 0  9995
2 45331  82.6674 101.1101 0243717 300.8823  56.8515 12.82039494114978
Source of the keplerian elements: AFSPC